Location: Camp Roosevelt
(41.7914°N, 81.1673°W)
Time: 18:28:37
(UTC+00:00)

ATLAS 2AS CENTAUR R/B - Pass Details

Date: 29 October 2020
Orbit: 939 x 1273 km, 63.7° (Epoch: 23 November)

Event Time Altitude Azimuth Distance (km) Brightness Sun altitude
Rises 23:36:17 0° 326° (NW) 4,167 6.2 -14.3°
Reaches altitude 10° 23:39:41 10° 338° (NNW) 3,156 5.4 -15.0°
Maximum altitude 23:45:57 27° 34° (NE) 2,045 3.8 -16.1°
Enters shadow 23:48:38 22° 67° (ENE) 2,246 3.8 -16.6°
